ProjectID,Date,Electric Generation,Electric Utility Import,Facility Electric Load
,YYYY-MM-DD,kW,kW,kW
95,2012-09-01,0.0,246.76808333333335,246.76808333333335
95,2012-09-02,0.0,237.13895833333333,237.13895833333333
95,2012-09-03,0.0,222.61325,222.61325
95,2012-09-04,0.0,257.10420833333336,257.10420833333336
95,2012-09-05,0.0,286.3014166666667,286.3014166666667
95,2012-09-06,0.0,240.55979166666668,240.55979166666668
95,2012-09-07,0.0,300.59091666666666,300.59091666666666
95,2012-09-08,0.0,198.78254166666667,198.78254166666667
95,2012-09-09,0.0,161.573625,161.573625
95,2012-09-10,0.0,155.48895833333333,155.48895833333333
95,2012-09-11,0.0,200.97504166666667,200.97504166666667
95,2012-09-12,0.0,164.86045833333333,164.86045833333333
95,2012-09-13,0.0,172.33133333333333,172.33133333333333
95,2012-09-14,0.0,173.75129166666667,173.75129166666667
95,2012-09-15,0.0,142.65829166666666,142.65829166666666
95,2012-09-16,0.0,139.65895833333335,139.65895833333335
95,2012-09-17,0.0,150.77158333333333,150.77158333333333
95,2012-09-18,0.0,180.6375833333333,180.6375833333333
95,2012-09-19,217.1700833333334,171.57641666666666,388.7465000000001
95,2012-09-20,203.13716666666667,180.69925,383.83641666666665
95,2012-09-21,221.78787499999996,159.036875,380.82475
95,2012-09-22,237.29500000000004,156.30283333333333,393.59783333333337
95,2012-09-23,237.7655,134.5785,372.344
95,2012-09-24,237.40624999999997,137.82229166666667,375.2285416666666
95,2012-09-25,237.31375,132.17854166666666,369.4922916666667
95,2012-09-26,228.303625,151.11733333333333,379.4209583333334
95,2012-09-27,121.64770833333334,272.38958333333335,394.0372916666667
95,2012-09-28,237.6029166666666,155.892375,393.4952916666666
95,2012-09-29,237.26504166666663,119.21804166666668,356.4830833333333
95,2012-09-30,237.70099999999994,108.92158333333333,346.6225833333333
95,2012-10-01,237.35349999999997,123.67554166666667,361.02904166666667
95,2012-10-02,237.573,140.07783333333333,377.65083333333337
95,2012-10-03,237.23291666666668,156.195875,393.4287916666667
95,2012-10-04,237.16904166666674,164.00833333333333,401.1773750000001
95,2012-10-05,237.50670833333336,153.40829166666666,390.915
95,2012-10-06,236.76637499999995,124.81316666666667,361.5795416666666
95,2012-10-07,228.24375,89.334,317.57775000000004
95,2012-10-08,219.92079166666664,87.242375,307.16316666666665
95,2012-10-09,223.97579166666662,91.65070833333334,315.62649999999996
95,2012-10-10,229.61929166666664,116.50895833333334,346.12825
95,2012-10-11,227.83808333333334,94.66183333333333,322.49991666666665
95,2012-10-12,213.7247083333333,90.19995833333333,303.9246666666666
95,2012-10-13,161.64420833333335,122.694375,284.33858333333336
95,2012-10-14,217.57270833333334,105.02983333333333,322.60254166666664
95,2012-10-15,236.98720833333334,133.20541666666665,370.192625
95,2012-10-16,178.13908333333336,160.689625,338.82870833333334
95,2012-10-17,204.9397916666667,98.78816666666667,303.7279583333334
95,2012-10-18,232.90408333333343,94.964625,327.8687083333334
95,2012-10-19,230.17645833333336,115.49374999999999,345.67020833333333
95,2012-10-20,236.72629166666673,89.80687499999999,326.5331666666667
95,2012-10-21,228.90983333333338,73.48475,302.3945833333334
95,2012-10-22,232.50133333333335,94.18191666666667,326.68325000000004
95,2012-10-23,236.684,94.552125,331.236125
95,2012-10-24,237.26049999999998,99.359,336.61949999999996
95,2012-10-25,232.43004166666663,94.04516666666666,326.4752083333333
95,2012-10-26,237.24162500000003,104.43195833333334,341.67358333333334
95,2012-10-27,237.63424999999998,94.83804166666665,332.47229166666665
95,2012-10-28,235.88833333333332,67.505625,303.39395833333333
95,2012-10-29,180.59674999999996,132.33816666666667,312.9349166666666
95,2012-10-30,0.0,249.00766666666667,249.00766666666667
95,2012-10-31,146.53975,87.92999999999999,234.46974999999998
95,2012-11-01,206.58070833333332,90.77070833333333,297.35141666666664
95,2012-11-02,135.52958333333333,169.556875,305.0864583333333
95,2012-11-03,225.19087499999998,61.51733333333333,286.7082083333333
95,2012-11-04,221.8354166666667,59.49933333333333,281.33475000000004
95,2012-11-05,222.95541666666665,65.91870833333333,288.874125
95,2012-11-06,217.98624999999996,62.75004166666667,280.7362916666666
95,2012-11-07,215.0208333333334,59.625708333333336,274.64654166666674
95,2012-11-08,220.6400416666667,64.67004166666666,285.31008333333335
95,2012-11-09,225.66133333333335,69.020125,294.68145833333335
95,2012-11-10,188.26129166666666,84.73475,272.99604166666666
95,2012-11-11,227.2973333333333,61.26595833333334,288.56329166666666
95,2012-11-12,233.2450416666667,87.88462500000001,321.1296666666667
95,2012-11-13,231.28291666666667,67.52216666666666,298.8050833333333
95,2012-11-14,220.25745833333337,71.08258333333333,291.3400416666667
95,2012-11-15,228.46537500000002,68.5125,296.97787500000004
95,2012-11-16,218.68483333333336,62.51529166666666,281.200125
95,2012-11-17,207.9104166666667,56.21458333333334,264.125
95,2012-11-18,214.79916666666668,58.99858333333333,273.79775
95,2012-11-19,221.94633333333334,65.02641666666666,286.97275
95,2012-11-20,219.0607083333333,65.326375,284.3870833333333
95,2012-11-21,220.3997916666667,63.18054166666667,283.58033333333333
95,2012-11-22,217.18783333333332,58.84441666666667,276.03225
95,2012-11-23,221.15050000000005,61.971583333333335,283.12208333333336
95,2012-11-24,189.66366666666667,54.768708333333336,244.432375
95,2012-11-25,189.2678333333333,55.61395833333333,244.88179166666663
95,2012-11-26,212.73879166666669,62.26745833333334,275.00625
95,2012-11-27,205.4762916666667,58.77845833333333,264.25475000000006
95,2012-11-28,178.2614166666667,91.57712500000001,269.8385416666667
95,2012-11-29,214.6307916666667,63.90758333333333,278.53837500000003
95,2012-11-30,215.24570833333334,62.32358333333334,277.5692916666667
95,2012-12-01,192.21004166666668,55.21191666666667,247.42195833333335
95,2012-12-02,212.566375,56.30770833333333,268.8740833333333
95,2012-12-03,228.45129166666666,72.15066666666667,300.6019583333333
95,2012-12-04,228.12787500000002,70.04725,298.17512500000004
95,2012-12-05,225.28120833333335,63.85079166666667,289.132
95,2012-12-06,206.90533333333335,60.82225,267.7275833333333
95,2012-12-07,214.53966666666665,61.65829166666666,276.1979583333333
95,2012-12-08,222.90787499999996,60.52783333333333,283.4357083333333
95,2012-12-09,219.73337500000005,59.677125,279.41050000000007
95,2012-12-10,232.58874999999998,80.632625,313.22137499999997
95,2012-12-11,222.67666666666665,63.34025,286.01691666666665
95,2012-12-12,209.81254166666668,61.752833333333335,271.565375
95,2012-12-13,209.51179166666665,61.52925,271.0410416666667
95,2012-12-14,208.18787500000005,61.798541666666665,269.98641666666674
95,2012-12-15,195.09170833333334,55.22358333333333,250.31529166666667
95,2012-12-16,206.268875,55.65616666666667,261.9250416666667
95,2012-12-17,213.24375,62.31033333333334,275.5540833333333
95,2012-12-18,229.9523333333333,75.92154166666667,305.873875
95,2012-12-19,233.57554166666668,71.87025,305.44579166666665
95,2012-12-20,224.5942083333334,63.974291666666666,288.5685000000001
95,2012-12-21,222.89075000000003,67.37570833333334,290.2664583333334
95,2012-12-22,216.24445833333337,55.489625,271.7340833333334
95,2012-12-23,220.01512499999998,56.52704166666666,276.5421666666666
95,2012-12-24,226.69704166666668,62.420125000000006,289.11716666666666
95,2012-12-25,226.71949999999995,57.127,283.84649999999993
95,2012-12-26,230.75925000000007,63.911833333333334,294.6710833333334
95,2012-12-27,231.21629166666662,63.189625,294.4059166666666
95,2012-12-28,227.621625,61.63183333333333,289.25345833333336
95,2012-12-29,219.83545833333332,55.856875,275.6923333333333
95,2012-12-30,216.6641250000001,55.743791666666674,272.4079166666668
95,2012-12-31,225.463,61.273625,286.736625
95,2013-01-01,204.18016666666668,74.961125,279.1412916666667
95,2013-01-02,222.14008333333334,64.167375,286.30745833333333
95,2013-01-03,224.32458333333332,62.22291666666666,286.5475
95,2013-01-04,225.49620833333339,64.11179166666666,289.60800000000006
95,2013-01-05,220.32412499999998,58.651999999999994,278.97612499999997
95,2013-01-06,223.50062500000004,59.41104166666667,282.9116666666667
95,2013-01-07,169.06320833333336,127.63475,296.69795833333336
95,2013-01-08,231.087625,67.28470833333334,298.37233333333336
95,2013-01-09,227.77666666666664,65.061125,292.83779166666665
95,2013-01-10,231.18087500000001,69.05141666666667,300.2322916666667
95,2013-01-11,235.22841666666667,76.92425,312.1526666666667
95,2013-01-12,236.9107916666667,63.981291666666664,300.8920833333334
95,2013-01-13,235.38133333333337,62.434,297.81533333333334
95,2013-01-14,238.60795833333339,84.51945833333333,323.1274166666667
95,2013-01-15,229.2614583333334,65.88683333333334,295.14829166666675
95,2013-01-16,228.3567083333334,64.64229166666667,292.999
95,2013-01-17,231.75879166666664,72.31391666666667,304.0727083333333
95,2013-01-18,225.10729166666667,62.93683333333333,288.044125
95,2013-01-19,232.3980833333334,67.94725,300.34533333333343
95,2013-01-20,236.75041666666664,72.90425,309.6546666666666
95,2013-01-21,236.75429166666666,62.931958333333334,299.68625
95,2013-01-22,230.02649999999997,63.45008333333333,293.4765833333333
95,2013-01-23,217.48212500000002,59.53062499999999,277.01275000000004
95,2013-01-24,218.6342916666667,60.119416666666666,278.7537083333334
95,2013-01-25,220.69341666666662,61.243,281.9364166666666
95,2013-01-26,213.458125,55.73266666666667,269.19079166666666
95,2013-01-27,215.40849999999998,55.60008333333334,271.0085833333333
95,2013-01-28,220.32641666666663,74.73754166666667,295.0639583333333
95,2013-01-29,238.8671666666667,79.166,318.0331666666667
95,2013-01-30,239.245,81.94654166666668,321.1915416666667
95,2013-01-31,237.77725,76.92433333333334,314.70158333333336
95,2013-02-01,227.13129166666667,66.46179166666667,293.5930833333333
95,2013-02-02,221.9717916666667,56.231291666666664,278.2030833333333
95,2013-02-03,229.3083333333333,57.78475,287.0930833333333
95,2013-02-04,231.05116666666666,65.66041666666666,296.71158333333335
95,2013-02-05,230.33595833333334,62.75204166666666,293.088
95,2013-02-06,233.00337500000003,66.909875,299.91325000000006
95,2013-02-07,232.67116666666675,65.35283333333334,298.0240000000001
95,2013-02-08,232.66470833333332,62.82225,295.4869583333333
95,2013-02-09,224.6637916666667,56.10695833333333,280.77075
95,2013-02-10,222.34858333333338,55.632625,277.98120833333337
95,2013-02-11,231.24916666666664,68.33891666666666,299.5880833333333
95,2013-02-12,232.24041666666673,70.3015,302.54191666666674
95,2013-02-13,133.738625,145.68479166666665,279.42341666666664
95,2013-02-14,227.633,65.67433333333334,293.30733333333336
95,2013-02-15,225.7402083333333,68.603375,294.3435833333333
95,2013-02-16,230.5871666666667,58.535500000000006,289.1226666666667
95,2013-02-17,223.96529166666667,56.293791666666664,280.25908333333336
95,2013-02-18,208.58083333333335,54.91454166666667,263.495375
95,2013-02-19,223.99066666666678,65.93120833333333,289.9218750000001
95,2013-02-20,233.4051666666667,64.49304166666667,297.8982083333334
95,2013-02-21,235.14862500000004,65.93470833333333,301.08333333333337
95,2013-02-22,230.54049999999995,68.13191666666667,298.6724166666666
95,2013-02-23,235.35454166666668,64.97916666666667,300.33370833333333
95,2013-02-24,236.19433333333336,64.08333333333333,300.2776666666667
95,2013-02-25,230.42849999999999,65.95337500000001,296.381875
95,2013-02-26,230.86716666666666,64.91254166666667,295.77970833333336
95,2013-02-27,234.95429166666668,83.45829166666667,318.4125833333334
95,2013-02-28,238.99487499999998,90.04441666666666,329.03929166666666
95,2013-03-01,237.25637500000002,79.34025,316.596625
95,2013-03-02,237.60337500000003,62.8645,300.46787500000005
95,2013-03-03,230.2355,56.809,287.04449999999997
95,2013-03-04,224.0499583333333,62.258375,286.3083333333333
95,2013-03-05,229.14762500000003,65.8,294.947625
95,2013-03-06,233.8407083333333,71.78824999999999,305.6289583333333
95,2013-03-07,186.71445833333334,117.99316666666665,304.707625
95,2013-03-08,61.073375,230.50833333333333,291.5817083333333
95,2013-03-09,227.03799999999998,63.534083333333335,290.5720833333333
95,2013-03-10,223.50762500000008,57.717375000000004,281.2250000000001
95,2013-03-11,232.12075000000002,73.02566666666667,305.1464166666667
95,2013-03-12,237.345625,79.54991666666668,316.8955416666667
95,2013-03-13,229.40112499999998,72.19029166666667,301.59141666666665
95,2013-03-14,230.81629166666667,64.08825,294.90454166666666
95,2013-03-15,204.28187499999999,93.334,297.61587499999996
95,2013-03-16,226.78449999999998,56.39091666666667,283.17541666666665
95,2013-03-17,227.55133333333333,56.77295833333333,284.3242916666667
95,2013-03-18,233.11749999999998,66.086125,299.203625
95,2013-03-19,233.62020833333335,66.57354166666667,300.19375
95,2013-03-20,231.05587500000004,66.43966666666667,297.4955416666667
95,2013-03-21,224.15712499999995,60.831250000000004,284.98837499999996
95,2013-03-22,227.3538333333333,61.80620833333333,289.16004166666664
95,2013-03-23,225.162,56.954791666666665,282.1167916666667
95,2013-03-24,221.61341666666667,60.136125,281.7495416666667
95,2013-03-25,189.22799999999998,97.811125,287.039125
95,2013-03-26,232.41579166666665,71.26183333333334,303.677625
95,2013-03-27,232.94370833333332,72.215875,305.15958333333333
95,2013-03-28,235.22283333333326,71.57141666666666,306.7942499999999
95,2013-03-29,237.03641666666667,83.87287500000001,320.90929166666666
95,2013-03-30,234.7591666666667,66.59095833333333,301.35012500000005
95,2013-03-31,236.96625000000003,64.01320833333334,300.97945833333335
95,2013-04-01,234.59354166666662,80.75,315.3435416666666
95,2013-04-02,235.2954166666667,70.07916666666667,305.37458333333336
95,2013-04-03,236.71133333333333,75.16308333333333,311.87441666666666
95,2013-04-04,235.88554166666668,78.64795833333334,314.5335
95,2013-04-05,228.29149999999996,88.25629166666666,316.5477916666666
95,2013-04-06,228.61899999999994,61.304875,289.92387499999995
95,2013-04-07,231.98791666666668,65.46316666666667,297.4510833333334
95,2013-04-08,229.6861666666667,103.59100000000001,333.27716666666674
95,2013-04-09,222.07008333333326,142.70620833333334,364.77629166666657
95,2013-04-10,200.23,142.55420833333332,342.7842083333333
95,2013-04-11,230.20433333333335,105.99379166666667,336.198125
95,2013-04-12,237.81525,74.16879166666666,311.98404166666666
95,2013-04-13,234.75295833333328,66.02366666666667,300.77662499999997
95,2013-04-14,236.92474999999993,72.95008333333332,309.87483333333324
95,2013-04-15,236.52949999999998,82.69375000000001,319.22325
95,2013-04-16,211.92600000000002,118.93958333333335,330.86558333333335
95,2013-04-17,224.02908333333332,120.37570833333332,344.40479166666665
95,2013-04-18,234.23474999999993,82.445875,316.68062499999996
95,2013-04-19,223.19583333333335,105.850625,329.04645833333336
95,2013-04-20,240.2187083333334,80.50975,320.7284583333334
95,2013-04-21,237.96983333333333,71.84854166666666,309.818375
95,2013-04-22,239.8529583333333,102.47154166666667,342.32449999999994
95,2013-04-23,240.54458333333335,95.93404166666666,336.478625
95,2013-04-24,239.12329166666674,115.75916666666666,354.8824583333334
95,2013-04-25,238.97829166666668,105.27983333333333,344.258125
95,2013-04-26,233.44454166666674,107.85562499999999,341.3001666666667
95,2013-04-27,236.2652083333334,103.73958333333333,340.00479166666673
95,2013-04-28,238.8646666666666,73.46116666666667,312.32583333333326
95,2013-04-29,237.86341666666667,84.304125,322.1675416666667
95,2013-04-30,236.010625,98.16104166666666,334.1716666666667
95,2013-05-01,241.55295833333324,108.85208333333333,350.40504166666653
95,2013-05-02,226.2052083333333,128.77770833333332,354.9829166666666
95,2013-05-03,230.9746666666667,101.516,332.4906666666667
95,2013-05-04,231.419625,74.042375,305.462
95,2013-05-05,236.85687499999997,64.491,301.347875
95,2013-05-06,212.50345833333333,105.08825,317.5917083333333
95,2013-05-07,207.32562499999997,126.39795833333334,333.7235833333333
95,2013-05-08,212.10054166666666,119.677125,331.7776666666667
95,2013-05-09,216.25804166666663,125.71104166666667,341.9690833333333
95,2013-05-10,195.75291666666666,164.11525,359.86816666666664
95,2013-05-11,166.91529166666666,166.07145833333334,332.98675000000003
95,2013-05-12,217.30341666666666,96.92358333333334,314.227
95,2013-05-13,237.52483333333328,78.61175,316.1365833333333
95,2013-05-14,236.50787500000004,86.06870833333333,322.57658333333336
95,2013-05-15,209.37879166666667,124.34441666666667,333.72320833333333
95,2013-05-16,161.2460833333333,189.19650000000001,350.44258333333335
95,2013-05-17,128.68945833333333,203.36458333333334,332.05404166666665
95,2013-05-18,134.908875,172.40283333333332,307.3117083333333
95,2013-05-19,240.07604166666673,77.63683333333334,317.71287500000005
95,2013-05-20,240.26399999999992,123.74512499999999,364.0091249999999
95,2013-05-21,241.10999999999999,165.767375,406.877375
95,2013-05-22,241.12429166666664,146.55212500000002,387.6764166666667
95,2013-05-23,240.78804166666671,143.61249999999998,384.4005416666667
95,2013-05-24,239.02679166666667,97.54591666666666,336.5727083333333
95,2013-05-25,230.60370833333332,60.20979166666667,290.8135
95,2013-05-26,238.1259166666666,77.30970833333333,315.43562499999996
95,2013-05-27,239.39516666666668,86.40279166666666,325.7979583333333
95,2013-05-28,240.45475,93.66179166666666,334.11654166666665
95,2013-05-29,206.48379166666666,164.670125,371.15391666666665
95,2013-05-30,240.38579166666668,205.48891666666668,445.8747083333334
95,2013-05-31,239.70883333333333,214.80058333333332,454.50941666666665
95,2013-06-01,240.31587500000003,192.13479166666664,432.4506666666667
95,2013-06-02,240.12979166666665,186.26262499999999,426.39241666666663
95,2013-06-03,241.05504166666674,191.17283333333333,432.22787500000004
95,2013-06-04,241.8698333333333,134.62916666666666,376.49899999999997
95,2013-06-05,241.83162499999995,123.78404166666667,365.6156666666666
95,2013-06-06,241.99949999999998,129.41604166666667,371.4155416666666
95,2013-06-07,241.65437500000004,120.25695833333333,361.91133333333335
95,2013-06-08,240.84625000000003,113.31183333333333,354.15808333333337
95,2013-06-09,242.232875,127.20970833333332,369.44258333333335
95,2013-06-10,241.0360833333333,142.05620833333333,383.0922916666666
95,2013-06-11,240.48016666666663,177.1395,417.6196666666666
95,2013-06-12,240.65345833333333,147.49933333333334,388.15279166666664
95,2013-06-13,241.31870833333335,127.259,368.57770833333336
95,2013-06-14,240.39625,107.79995833333334,348.19620833333335
95,2013-06-15,241.4970833333333,115.14933333333333,356.64641666666665
95,2013-06-16,241.04887499999998,147.52495833333333,388.5738333333333
95,2013-06-17,240.62454166666672,184.9500416666667,425.5745833333334
95,2013-06-18,240.91383333333332,175.57004166666664,416.48387499999995
95,2013-06-19,226.72595833333335,152.61258333333333,379.3385416666667
95,2013-06-20,241.89412500000003,140.83604166666666,382.7301666666667
95,2013-06-21,236.92566666666673,140.71533333333335,377.6410000000001
95,2013-06-22,241.45362500000007,136.92291666666668,378.37654166666675
95,2013-06-23,240.64133333333336,169.37779166666667,410.01912500000003
95,2013-06-24,239.40887500000005,229.93891666666664,469.3477916666667
95,2013-06-25,239.6599166666667,230.852125,470.51204166666673
95,2013-06-26,240.4624166666667,219.97012500000002,460.43254166666674
95,2013-06-27,239.31679166666666,222.08329166666667,461.4000833333333
95,2013-06-28,239.2070416666667,214.81529166666667,454.02233333333334
95,2013-06-29,240.378875,183.46958333333336,423.8484583333334
95,2013-06-30,116.97824999999999,298.3854166666667,415.3636666666667
95,2013-07-01,210.94399999999996,220.97570833333336,431.91970833333335
95,2013-07-02,210.55133333333336,228.95970833333334,439.5110416666667
95,2013-07-03,210.9009166666667,239.67504166666666,450.57595833333335
95,2013-07-04,210.21041666666667,265.47495833333335,475.685375
95,2013-07-05,210.23212500000002,286.381875,496.61400000000003
95,2013-07-06,208.75566666666668,299.2561666666667,508.01183333333336
95,2013-07-07,209.22404166666664,300.48675,509.71079166666664
95,2013-07-08,210.49241666666668,282.9959166666667,493.48833333333334
95,2013-07-09,175.5365416666667,314.90908333333334,490.44562500000006
95,2013-07-10,208.31912499999999,290.75545833333337,499.07458333333335
95,2013-07-11,112.15595833333333,365.7784583333334,477.9344166666667
95,2013-07-12,210.86008333333334,233.53341666666665,444.3935
95,2013-07-13,210.79512499999998,239.475625,450.27075
95,2013-07-14,210.30116666666666,274.48679166666665,484.78795833333334
95,2013-07-15,209.452625,318.83754166666665,528.2901666666667
95,2013-07-16,209.60833333333326,313.13758333333334,522.7459166666666
95,2013-07-17,209.77187500000002,319.23258333333337,529.0044583333333
95,2013-07-18,209.547375,342.9277916666667,552.4751666666666
95,2013-07-19,208.21429166666667,345.66312500000004,553.8774166666667
95,2013-07-20,209.46245833333333,290.47858333333335,499.9410416666667
95,2013-07-21,210.17583333333334,249.722125,459.89795833333335
95,2013-07-22,210.33479166666666,272.0430833333333,482.37787499999996
95,2013-07-23,209.99325,281.2486666666667,491.24191666666667
95,2013-07-24,210.69466666666668,243.28058333333334,453.97525
95,2013-07-25,211.2500416666667,176.14374999999998,387.3937916666667
95,2013-07-26,210.76037500000004,213.893,424.65337500000004
95,2013-07-27,210.95287500000003,217.07775,428.03062500000004
95,2013-07-28,211.0225416666667,217.37779166666667,428.4003333333334
95,2013-07-29,210.62662499999996,236.18608333333336,446.8127083333333
95,2013-07-30,210.64125,215.104875,425.746125
95,2013-07-31,210.93066666666667,224.18820833333334,435.118875
95,2013-08-01,211.17249999999999,224.22225,435.39475
95,2013-08-02,194.55625,253.99929166666666,448.55554166666667
95,2013-08-03,210.86950000000002,202.98895833333333,413.8584583333334
95,2013-08-04,211.0382083333333,187.68825,398.7264583333333
95,2013-08-05,227.83024999999998,166.29929166666668,394.1295416666667
95,2013-08-06,240.7408333333333,174.761,415.5018333333333
95,2013-08-07,240.82883333333325,195.67425,436.5030833333333
95,2013-08-08,240.58570833333332,225.56733333333332,466.15304166666664
95,2013-08-09,171.12891666666664,311.73404166666666,482.86295833333327
95,2013-08-10,240.29991666666663,195.198625,435.4985416666666
95,2013-08-11,240.30933333333334,175.383875,415.69320833333336
95,2013-08-12,239.85866666666666,210.42633333333333,450.28499999999997
95,2013-08-13,240.04983333333328,204.10620833333334,444.1560416666666
95,2013-08-14,241.01545833333333,145.58333333333334,386.59879166666667
95,2013-08-15,241.04925000000003,152.71879166666668,393.7680416666667
95,2013-08-16,237.48699999999997,152.49229166666666,389.97929166666665
95,2013-08-17,240.7280000000001,151.19658333333334,391.92458333333343
95,2013-08-18,240.8662916666667,145.0875,385.9537916666667
95,2013-08-19,240.68658333333335,175.96516666666665,416.65175
95,2013-08-20,239.95741666666663,215.17012499999998,455.1275416666666
95,2013-08-21,240.09212499999998,222.94795833333333,463.0400833333333
95,2013-08-22,219.62487499999997,233.10066666666668,452.7255416666667
95,2013-08-23,239.80920833333334,183.08395833333336,422.89316666666673
95,2013-08-24,240.499375,149.20770833333333,389.70708333333334
95,2013-08-25,155.42316666666667,235.25900000000001,390.6821666666667
95,2013-08-26,126.65795833333334,296.92858333333334,423.5865416666667
95,2013-08-27,162.46854166666665,296.462375,458.9309166666667
95,2013-08-28,194.4835416666667,263.12629166666665,457.6098333333333
95,2013-08-29,240.27404166666668,196.32225000000003,436.59629166666673
95,2013-08-30,240.5784166666666,206.78333333333333,447.3617499999999